Location: Caltech
(34.1382°N, 118.1253°W)
Time: 20:04:10
(UTC-07:00)

AO-7 - Pass Details

Date: 17 March 2018
Orbit: 1440 x 1458 km, 101.7° (Epoch: 17 July)

Event Time Altitude Azimuth Distance (km) Brightness Sun altitude
Rises 02:56:30 0° 34° (NE) 4,540 ? -47.5°
Reaches altitude 10° 03:00:25 10° 52° (NE) 3,557 ? -46.9°
Maximum altitude 03:05:56 19° 94° (E) 2,893 ? -46.0°
Enters shadow 03:09:08 16° 122° (ESE) 3,129 ? -45.5°
